Theta_e
315 315 314 315 314 315 315 316 318 317 316 318 318 317 317 315 314 314 316 317 319 319 318 318 318 317 317 317 318 318 321 332 332 338 338 337 338 338 337 338 338 337 336 337
318 312 312 313 315 316 316 316 317 316 315 318 317 317 316 316 316 316 315 316 317 317 317 316 316 316 317 316 316 317 318 320 321 322 323 325 327 329 330 331 333 336 336 336
315 315 313 315 316 316 316 315 315 317 314 313 315 316 316 314 314 316 316 315 316 317 316 316 316 316 316 316 316 316 316 317 317 318 319 320 322 324 324 323 323 325 327 330
315 314 314 315 317 315 317 314 314 314 315 318 315 318 312 313 313 312 316 316 315 315 315 315 315 315 315 316 316 316 316 316 316 316 316 316 317 317 318 318 319 319 319 319
314 314 314 316 316 313 315 312 313 313 314 314 313 314 312 309 311 313 313 315 314 315 315 315 315 315 315 315 315 315 314 314 313 313 313 313 314 314 314 314 315 316 316 317
314 313 313 314 314 314 314 312 312 312 312 314 313 313 312 309 309 311 311 314 313 313 314 314 315 315 315 315 314 313 313 313 313 313 314 314 313 313 312 312 312 312 312 312
315 314 313 313 314 315 314 312 314 316 317 315 310 312 315 309 307 308 309 310 311 313 314 315 315 315 314 315 314 314 314 314 313 313 313 313 313 313 313 313 313 312 312 312
316 317 314 311 313 314 313 311 310 316 316 314 310 314 313 309 309 309 310 311 311 314 315 315 316 316 315 315 314 313 313 313 313 313 313 313 313 313 313 313 313 313 313 313
312 314 312 313 313 313 315 316 308 306 304 306 309 308 307 308 308 307 310 311 311 314 316 316 316 316 315 314 313 313 312 312 311 311 311 311 311 312 312 313 313 314 314 314
309 314 311 313 313 313 314 311 313 303 308 312 310 308 310 310 309 307 309 312 315 316 316 316 316 315 314 314 313 312 312 311 311 310 310 310 310 310 311 311 310 311 311 310
307 309 312 314 315 316 317 316 312 309 306 311 310 309 304 305 308 309 310 313 315 316 316 316 316 315 314 313 312 312 311 310 310 310 310 310 310 310 309 309 309 309 309 309
310 309 313 314 311 313 315 316 310 309 309 302 303 307 305 302 306 310 311 313 315 316 316 316 316 315 314 313 311 311 310 310 309 309 309 309 309 309 309 309 309 309 309 309
310 310 313 312 311 312 316 315 311 306 302 302 306 308 304 305 307 311 312 314 314 315 316 315 314 314 313 311 310 310 309 308 308 308 308 308 308 308 309 309 309 309 309 309
310 308 307 308 307 310 314 316 311 308 306 307 305 308 308 307 307 309 312 313 314 314 315 315 314 313 311 310 309 308 308 308 307 307 307 308 308 308 307 307 307 307 308 308
307 308 305 309 310 306 308 312 313 307 313 311 313 308 309 307 306 309 312 312 313 314 314 314 314 313 311 309 308 308 307 306 306 306 306 307 307 306 306 306 306 307 307 307
305 304 303 305 309 308 308 308 312 312 311 311 311 309 307 307 309 309 312 313 313 314 314 313 313 311 310 308 307 307 306 305 305 305 306 306 306 305 305 305 306 306 306 305
306 304 302 303 306 306 307 306 308 310 307 310 311 313 307 305 307 309 310 311 312 313 314 314 313 311 309 307 306 306 305 305 305 305 305 305 305 305 305 304 303 304 303 302
304 303 303 302 304 304 305 306 306 308 308 307 307 307 307 307 309 310 310 310 311 313 314 313 312 310 308 307 305 304 304 304 304 304 304 304 304 304 303 302 302 302 301 301
304 304 306 306 302 304 308 308 307 307 307 306 307 307 307 308 309 310 311 312 312 313 314 312 310 309 307 305 304 303 303 303 303 303 303 303 303 302 301 300 301 300 300 300
305 303 304 303 307 309 307 309 307 307 308 308 306 305 307 310 310 308 312 313 313 313 312 311 310 309 307 305 304 303 302 302 302 302 302 302 301 300 299 300 300 299 299 294
308 309 306 306 304 305 304 308 308 309 308 310 307 307 308 308 309 311 312 312 313 312 311 310 310 309 306 305 304 303 303 301 300 299 299 300 299 298 299 299 298 294 292 291
307 309 308 305 306 305 308 309 310 308 312 309 307 307 308 312 312 314 312 312 311 311 310 310 310 309 307 305 304 303 302 301 299 298 299 299 299 299 298 298 292 291 290 290
306 305 306 305 305 305 308 310 310 312 312 311 310 309 310 312 312 311 311 310 310 309 309 308 308 308 306 305 304 303 301 301 299 298 299 300 299 298 298 292 291 291 290 289
305 304 305 306 306 305 308 309 310 312 312 312 311 311 311 311 311 310 310 311 310 310 309 308 307 308 307 305 304 303 301 301 300 299 299 299 300 298 293 291 291 291 290 289
305 304 305 304 305 307 308 309 311 312 312 311 311 312 311 311 312 313 313 313 312 311 309 308 307 307 307 305 304 303 302 302 301 300 300 299 300 296 291 291 291 291 290 289
304 305 305 305 306 307 308 309 310 311 311 311 311 310 310 309 309 308 308 308 308 308 308 308 308 307 306 306 305 304 303 303 302 301 300 300 299 293 291 291 291 291 290 289
Wind_Speed
12 4 21 22 8 1 7 6 12 1 8 12 11 6 6 11 8 15 21 23 20 16 12 15 17 16 18 18 18 17 17 18 19 23 24 23 25 25 25 24 25 26 26 28
6 12 13 8 8 4 10 5 8 2 4 11 4 7 7 10 9 12 15 21 24 18 13 12 14 17 18 18 18 17 18 21 22 22 23 24 24 24 25 25 25 26 28 31
2 10 11 10 5 6 2 6 5 6 4 3 4 5 6 10 9 17 20 16 17 20 17 14 13 16 17 17 18 18 18 18 19 20 22 23 25 27 28 28 27 27 27 28
1 15 12 12 5 4 4 3 5 7 5 4 4 4 7 7 11 7 27 25 21 16 14 15 16 16 16 17 17 17 17 20 23 24 24 25 26 26 26 26 27 28 28 27
4 18 14 10 6 5 3 2 5 3 3 3 1 1 6 1 8 18 20 27 21 19 20 21 18 16 14 14 15 16 18 20 20 20 20 21 23 25 27 27 28 28 28 30
6 6 5 3 4 3 4 5 6 5 3 2 5 5 5 6 7 4 17 28 25 23 22 20 18 15 14 12 12 13 14 14 14 14 13 13 12 13 13 15 16 17 18 20
12 4 3 3 7 2 3 4 2 2 1 5 2 5 12 6 6 6 9 20 25 24 26 23 18 15 13 11 10 9 10 11 13 14 15 15 16 15 15 16 16 16 16 15
4 5 2 4 3 5 3 4 4 5 4 3 3 8 5 6 7 14 15 18 26 27 24 20 16 13 11 9 8 8 8 9 10 12 13 14 14 15 15 16 16 17 18 18
4 3 2 4 1 2 4 3 3 6 3 3 5 7 8 4 5 4 11 21 28 29 26 20 16 12 10 8 7 7 7 8 9 10 10 11 11 12 13 14 15 16 17 19
3 5 1 1 3 2 2 2 1 3 3 4 4 5 6 4 7 6 10 21 28 26 22 18 14 12 9 7 7 7 8 8 9 9 9 9 9 9 10 11 12 13 14 14
4 3 3 6 6 7 2 2 2 3 4 4 2 5 6 6 7 10 13 24 29 26 21 18 14 12 10 9 9 9 9 9 10 10 10 10 10 11 12 13 14 14 14 14
2 4 5 2 3 3 4 4 6 4 4 1 2 5 2 6 7 13 13 25 25 22 20 17 15 13 11 11 11 10 10 11 11 11 11 11 11 11 12 12 13 13 12 12
5 2 4 1 2 2 6 6 4 3 3 6 4 5 2 4 4 14 19 24 22 21 19 17 16 14 12 11 12 10 10 11 10 10 10 9 10 10 10 10 10 10 10 9
5 3 5 7 5 4 6 9 7 6 4 4 6 5 4 2 6 8 21 23 22 22 20 19 16 14 12 12 12 11 11 11 11 11 10 10 11 11 11 11 10 9 9 8
3 4 3 2 1 3 3 9 17 9 14 9 7 8 6 6 9 17 22 21 21 21 21 20 17 14 13 14 14 13 12 11 11 11 11 11 11 11 11 9 9 7 6 6
2 1 2 2 2 4 4 7 12 16 8 8 11 7 6 7 9 12 22 22 21 23 23 19 16 15 14 14 14 13 12 11 10 11 11 12 12 11 9 7 6 5 4 3
3 5 3 4 3 3 6 8 11 6 6 11 11 15 4 5 9 19 22 22 23 23 21 20 17 15 13 13 13 13 12 12 11 12 13 12 11 9 7 5 3 3 5 5
4 4 2 2 2 1 5 1 4 11 4 11 6 5 6 9 24 27 23 23 23 19 18 17 15 13 12 12 14 14 13 12 12 12 13 12 9 7 6 4 6 7 8 7
3 4 2 3 3 6 3 2 4 5 6 13 14 11 9 5 11 9 15 15 15 15 15 14 11 11 11 11 12 13 13 12 13 14 13 10 8 7 7 8 9 9 9 10
4 5 4 1 1 4 3 2 3 3 5 5 11 8 8 10 5 4 15 13 13 14 14 12 10 9 9 9 11 12 13 14 15 15 12 10 9 9 9 11 11 11 9 8
2 1 4 3 2 6 6 3 6 4 5 9 7 15 12 5 7 10 9 13 11 12 12 11 9 8 7 9 10 11 12 13 13 10 10 10 10 11 13 12 11 10 9 7
5 5 3 3 2 6 3 3 4 4 5 5 2 12 14 12 6 7 9 10 9 10 11 11 10 8 8 8 9 10 11 10 9 10 11 12 14 15 13 11 10 9 8 6
2 6 4 7 5 5 6 5 4 5 2 2 2 7 11 11 9 9 7 5 4 6 8 11 11 10 10 9 9 10 10 10 10 12 14 15 16 14 13 12 10 8 7 6
3 5 3 1 2 5 8 9 7 5 3 2 4 6 6 6 6 5 3 1 4 7 9 10 12 13 12 11 10 10 12 11 13 14 16 17 17 15 15 13 11 9 7 6
4 4 4 4 6 6 8 11 7 6 5 5 5 5 5 5 7 9 10 11 13 13 13 13 13 13 13 13 12 12 12 13 14 16 17 17 16 16 15 13 11 10 9 8
6 6 4 5 7 5 6 7 12 10 8 7 6 5 4 4 5 7 8 9 10 12 13 15 15 14 14 16 15 14 13 14 16 18 19 18 17 17 16 14 12 11 10 10
Wind_Direction
206 166 183 192 177 279 140 122 195 153 182 187 215 179 240 207 203 227 228 227 226 227 235 239 233 232 220 224 231 235 234 231 234 234 238 241 243 249 254 261 263 265 264 266
203 188 178 133 164 113 146 140 178 117 152 187 187 212 231 262 245 240 240 229 225 220 215 221 215 211 217 228 236 242 237 232 235 239 243 245 246 247 250 252 253 257 262 261
212 155 162 158 162 113 143 151 165 159 115 57 114 288 215 247 253 254 251 250 233 218 212 210 205 208 216 228 237 239 237 237 240 244 247 246 248 249 252 255 259 260 260 261
236 159 141 141 150 117 101 174 134 122 127 201 161 264 257 227 242 242 242 238 234 215 210 208 211 210 216 225 234 243 250 254 256 255 252 250 251 254 257 258 259 261 268 270
205 143 140 146 154 126 98 143 163 120 106 124 233 171 256 178 223 234 231 231 230 221 214 204 201 208 214 226 238 248 256 260 263 265 265 262 261 261 262 263 264 265 265 266
85 76 75 118 69 130 120 81 58 63 95 276 193 180 254 214 210 218 231 232 221 200 194 193 196 206 219 231 238 242 245 249 251 255 261 264 265 266 268 271 274 275 274 270
97 53 52 56 89 48 87 86 53 60 209 222 252 191 246 249 234 224 243 229 203 191 185 187 196 206 220 228 235 242 247 252 257 261 265 269 271 271 271 271 273 275 276 275
105 142 52 338 127 159 147 145 151 180 196 236 118 241 241 232 246 248 262 231 191 182 183 186 193 201 213 225 238 254 264 268 270 273 274 274 275 275 275 275 274 274 275 276
124 82 82 29 88 93 175 165 188 105 24 55 222 293 293 228 265 224 190 185 182 178 179 184 190 202 215 230 251 271 283 287 286 283 279 276 275 274 274 275 276 275 276 277
138 104 0 117 64 53 76 146 140 4 144 237 257 271 247 271 256 194 162 172 175 177 180 186 195 205 218 240 266 280 286 289 288 283 279 277 275 277 280 280 281 281 281 282
135 104 146 143 198 191 157 191 153 137 155 206 254 257 217 265 251 201 180 176 177 181 185 191 197 207 225 249 267 276 285 288 287 282 276 275 278 281 282 282 282 282 281 283
158 109 149 154 332 208 224 228 190 155 221 249 157 273 309 289 247 173 176 181 183 188 192 197 204 214 231 249 258 263 273 282 281 276 274 276 281 285 288 287 283 281 282 289
183 111 102 67 336 213 223 195 206 113 73 204 147 258 333 4 169 175 180 187 188 196 195 199 208 221 239 247 249 255 269 279 274 270 273 279 282 287 290 289 285 282 281 286
124 136 165 194 203 147 194 201 197 173 196 179 224 277 316 307 217 198 191 193 198 200 202 206 214 228 239 243 247 253 265 272 270 270 274 280 283 287 287 282 281 281 275 269
104 165 134 301 172 119 222 206 209 204 219 205 230 216 242 235 214 201 195 200 197 201 207 214 222 234 241 243 247 250 262 267 267 266 275 280 283 289 292 284 273 270 259 253
29 179 91 319 197 204 245 222 214 221 238 254 256 260 236 271 203 193 194 196 204 210 215 220 226 238 247 251 246 248 257 267 262 262 272 279 284 288 291 282 275 252 232 220
120 135 104 260 332 316 288 219 193 201 198 211 224 244 194 201 194 205 203 207 214 220 220 224 235 244 250 252 248 248 254 259 260 265 274 278 276 275 275 268 245 182 160 149
129 110 115 180 19 326 244 264 209 213 223 215 259 198 204 225 221 214 220 224 223 224 225 229 235 247 255 247 242 245 253 260 264 268 273 273 264 257 243 215 170 156 148 141
144 128 109 147 191 285 292 187 159 168 272 217 227 225 215 216 187 210 215 219 230 232 230 228 230 244 250 243 243 247 253 259 265 269 268 263 249 231 201 177 161 152 142 132
95 96 114 121 161 240 262 318 175 126 292 312 225 202 182 167 173 237 201 213 219 220 220 223 233 248 254 252 245 246 255 265 265 264 252 238 217 198 178 160 153 150 144 137
160 120 172 194 245 286 250 244 145 84 252 315 262 213 188 175 190 211 223 215 208 210 213 224 238 254 262 254 246 250 260 268 270 236 221 208 195 178 166 162 161 160 157 149
167 172 195 160 201 274 201 113 176 232 303 318 339 198 186 195 190 180 174 187 205 217 230 239 244 254 258 252 251 254 259 263 237 211 200 194 183 178 172 173 178 171 170 170
217 184 189 180 213 234 233 233 264 266 292 13 121 161 185 176 172 176 181 203 232 249 257 253 246 250 252 255 252 251 252 254 223 208 194 187 185 183 181 185 189 189 194 206
239 182 207 98 257 250 256 250 265 252 247 202 142 131 146 151 154 159 121 307 294 287 279 265 253 251 252 254 253 249 248 241 218 205 194 191 191 190 191 197 204 212 220 233
212 145 193 254 283 287 258 237 236 234 217 189 174 180 199 203 216 233 244 245 255 261 260 265 265 259 255 255 253 253 248 231 215 202 200 199 199 200 203 210 219 226 232 243
193 196 173 225 228 212 258 252 236 224 214 209 209 203 207 218 220 231 240 248 255 263 263 261 264 262 257 254 256 255 247 235 219 211 210 207 209 210 214 220 227 235 244 252